Fort Campbell, KY

8:12 AM CST on December 11, 2017 (GMT -0600)
Campbell Army Air Field

Weather History for KHOP - August, 2013

Change the Weather History Date:

Thursday, August 22, 2013

  Actual Average Record
Temperature  
Mean Temperature 78 °F -  
Max Temperature 88 °F 85 °F 102 °F (2007)
Min Temperature 68 °F 66 °F 59 °F (1999)
Cooling Degree Days 12    
Growing Degree Days 28 (Base 50)    
Moisture  
Dew Point 72 °F    
Average Humidity 85    
Maximum Humidity 100    
Minimum Humidity 53    
Precipitation  
Precipitation 0.00 in - - ()
Sea Level Pressure  
Sea Level Pressure 30.10 in    
Wind  
Wind Speed 3 mph (SW)    
Max Wind Speed 9 mph    
Max Gust Speed -    
Visibility 10 miles    
Events Rain    
Averages and records for this station are not official NWS values.
T = Trace of Precipitation, MM = Missing Value Source: NWS Daily Summary

Daily Weather History Graph

Daily Weather History Graph

Search for Another Location

Airport or City:

Trip Planner

Search our weather history database for the weather conditions in past years. The results will help you decide how hot, cold, wet, or windy it might be!

Date:

Astronomy

Aug. 22, 2013 Rise Set
Actual Time 6:13 AM CDT 7:31 PM CDT
Civil Twilight 5:46 AM CDT 7:58 PM CDT
Nautical Twilight 5:13 AM CDT 8:30 PM CDT
Astronomical Twilight 4:40 AM CDT 9:04 PM CDT
Moon 8:20 PM CDT (8/22) 7:57 AM CDT (8/22)
Length of Visible Light 14h 12m
Length of Day
13h 18m
Waning Gibbous, 96% of the Moon is Illuminated
Aug 22
Waning Gibbous
Aug 28
Last Quarter
Sep 5
New
Sep 12
First Quarter
Sep 19
Full

Hourly Weather History & Observations

Time (CDT) Temp. Heat Index Dew Point Humidity Pressure Visibility Wind Dir Wind Speed Gust Speed Precip Events Conditions
12:58 AM 74.3 °F - 74.3 °F 100% 30.12 in 10.0 mi SW 2.3 mph - N/A   Clear
1:58 AM 73.4 °F - 73.4 °F 100% 30.11 in 10.0 mi SSW 2.3 mph - N/A   Clear
2:03 AM 73.4 °F - 73.4 °F 100% 30.12 in 10.0 mi SW 1.2 mph - N/A Rain Light Rain
2:13 AM 73.4 °F - 73.4 °F 100% 30.12 in 9.0 mi SSW 2.3 mph - N/A   Clear
2:18 AM 73.4 °F - 73.4 °F 100% 30.12 in 10.0 mi South 3.5 mph - N/A Rain Light Rain
2:21 AM 73.4 °F - 73.4 °F 100% 30.12 in 10.0 mi South 3.5 mph - N/A   Clear
2:58 AM 72.7 °F - 72.7 °F 100% 30.10 in 10.0 mi South 3.5 mph - 0.00 in   Clear
3:58 AM 72.7 °F - 72.7 °F 100% 30.11 in 10.0 mi SSE 3.5 mph - N/A   Clear
4:58 AM 72.0 °F - 72.0 °F 100% 30.12 in 10.0 mi Calm Calm - N/A   Clear
5:08 AM 71.6 °F - 71.6 °F 100% 30.13 in 10.0 mi Calm Calm - N/A   Light Drizzle
5:18 AM 71.6 °F - 71.6 °F 100% 30.14 in 10.0 mi Calm Calm - N/A   Clear
5:58 AM 68.5 °F - 68.5 °F 100% 30.14 in 10.0 mi East 2.3 mph - 0.00 in   Clear
6:58 AM 70.5 °F - 70.5 °F 100% 30.14 in 10.0 mi SE 1.2 mph - N/A   Clear
7:58 AM 76.5 °F - 75.2 °F 96% 30.14 in 10.0 mi South 3.5 mph - N/A   Unknown
8:58 AM 78.4 °F - 76.6 °F 94% 30.13 in 10.0 mi WSW 5.8 mph - N/A   Clear
9:58 AM 81.7 °F 89.0 °F 76.5 °F 84% 30.13 in 10.0 mi WSW 5.8 mph - N/A   Clear
10:58 AM 84.4 °F 92.0 °F 74.5 °F 72% 30.14 in 10.0 mi WSW 5.8 mph - N/A   Clear
11:58 AM 86.2 °F 93.4 °F 73.2 °F 65% 30.13 in 10.0 mi WNW 5.8 mph - N/A   Clear
12:58 PM 87.8 °F 95.2 °F 72.9 °F 61% 30.11 in 10.0 mi West 9.2 mph - N/A   Partly Cloudy
1:58 PM 86.5 °F 92.5 °F 71.8 °F 61% 30.09 in 10.0 mi Variable 4.6 mph - N/A   Partly Cloudy
2:58 PM 87.4 °F 91.2 °F 68.4 °F 53% 30.07 in 10.0 mi NW 8.1 mph - N/A   Clear
3:58 PM 87.3 °F 92.0 °F 69.6 °F 56% 30.05 in 10.0 mi NNW 5.8 mph - N/A   Clear
4:58 PM 86.5 °F 90.3 °F 68.5 °F 55% 30.04 in 10.0 mi NNW 4.6 mph - N/A   Clear
5:58 PM 85.8 °F 89.7 °F 69.1 °F 57% 30.03 in 10.0 mi NNW 4.6 mph - N/A   Clear
6:58 PM 82.8 °F 86.4 °F 69.4 °F 64% 30.03 in 10.0 mi North 1.2 mph - N/A   Clear
7:58 PM 80.4 °F 83.8 °F 70.3 °F 71% 30.04 in 10.0 mi Calm Calm - N/A   Clear
8:58 PM 78.4 °F - 70.5 °F 77% 30.05 in 10.0 mi Calm Calm - N/A   Clear
9:58 PM 77.0 °F - 71.6 °F 83% 30.05 in 10.0 mi Calm Calm - N/A   Clear
10:58 PM 73.2 °F - 72.7 °F 98% 30.06 in 10.0 mi Calm Calm - N/A   Clear
11:58 PM 73.4 °F - 73.4 °F 100% 30.07 in 10.0 mi Calm Calm - N/A   Clear
11:59 PM 73.4 °F - 73.4 °F 100% 30.08 in 10.0 mi Calm Calm - N/A   Light Drizzle